Tracking 17138 objects as of 2-July-2015
HD Live streaming from Space Station

SL-14 R/B

Track SL-14 R/B now!
10-day predictions
SL-14 R/B is classified as:


NORAD ID: 11267
Int'l Code: 1979-011B
Perigee: 596.5 km
Apogee: 622.5 km
Inclination: 82.5 °
Period: 96.7 minutes
Semi major axis: 6980 km
RCS: 4.4018 m2 (large)
Launch date: February 12, 1979
Source: Commonwealth of Independent States (former USSR) (CIS)

Note: This is a ROCKET BODY
Your satellite tracking list
Your tracking list is empty





NASA's NSSDC Master Catalog

Two Line Element Set (TLE):
1 11267U 79011B   15182.48255356  .00000176  00000-0  16083-4 0  9996
2 11267 082.5241 186.0002 0018662 092.6860 267.6494 14.88587471968837

Source of the keplerian elements: AFSPC

N2YO: 194